1501434000.51,39489,26.19,74582.8,13.21,-12.53,-12.93,0,*4F
1501434001.74,39490,26.13,74580.8,13.23,-12.47,-12.79,0,*44
1501434003.0,39491,26.19,74582.8,13.21,-12.65,-12.97,0,*47
1501434004.25,39492,26.19,74580.3,13.21,-12.47,-12.83,0,*41
1501434005.48,39493,26.13,74582.5,13.23,-12.75,-13.07,0,*4E
1501434006.71,39494,26.13,74582.0,13.23,-12.53,-12.93,0,*41
1501434007.96,39495,26.19,74582.3,13.21,-12.71,-13.07,0,*4E
1501434009.2,39496,26.19,74580.8,13.21,-12.93,-13.19,0,*4E
1501434010.45,39497,26.19,74582.8,13.21,-12.83,-13.11,0,*46
1501434011.71,39498,26.13,74578.3,13.21,-12.57,-12.93,0,*4B
1501434012.97,39499,26.19,74580.5,13.21,-12.47,-12.71,0,*47
1501434014.23,39500,26.19,74582.0,13.21,-12.39,-12.71,0,*4F
1501434015.46,39501,26.19,74580.5,13.23,-12.47,-12.83,0,*48
1501434016.73,39502,26.19,74580.5,13.21,-12.35,-12.65,0,*44
1501434017.98,39503,26.19,74582.8,13.21,-12.39,-12.65,0,*49
1501434019.24,39504,26.19,74582.0,13.21,-12.07,-12.47,0,*43
1501434020.48,39505,26.19,74584.5,13.21,-12.21,-12.47,0,*46
1501434021.73,39506,26.19,74586.5,13.21,-12.47,-12.79,0,*48
1501434022.99,39507,26.19,74580.8,13.21,-12.39,-12.71,0,*48
1501434024.25,39508,26.19,74580.8,13.21,-12.39,-12.71,0,*47
1501434025.54,39509,26.19,74582.8,13.21,-12.53,-12.79,0,*42
1501434026.76,39510,26.19,74582.0,13.23,-12.43,-12.65,0,*44
1501434028.01,39511,26.19,74582.3,13.23,-12.35,-12.61,0,*40
1501434029.27,39512,26.19,74582.8,13.21,-12.79,-13.07,0,*48
1501434030.52,39513,26.19,74582.0,13.23,-12.53,-12.79,0,*4B
1501434031.77,39514,26.19,74584.0,13.21,-12.83,-13.11,0,*4C
1501434033.02,39515,26.19,74578.8,13.21,-12.83,-13.07,0,*4A
1501434034.28,39516,26.19,74582.0,13.21,-12.65,-12.93,0,*4D
1501434035.54,39517,26.13,74576.0,13.21,-12.71,-12.97,0,*4D
1501434036.79,39518,26.19,74578.3,13.21,-12.57,-12.93,0,*42
1501434038.02,39519,26.19,74580.5,13.19,-12.47,-12.71,0,*45
1501434039.25,39520,26.19,74580.0,13.19,-12.47,-12.57,0,*4B
1501434040.5,39521,26.19,74580.0,13.19,-12.57,-12.79,0,*47
1501434041.73,39522,26.19,74578.8,13.19,-12.47,-12.71,0,*4D
1501434042.98,39523,26.19,74580.0,13.19,-12.35,-12.65,0,*4C
1501434044.21,39524,26.19,74580.8,13.19,-12.53,-12.93,0,*42
1501434045.46,39525,26.19,74580.8,13.19,-12.57,-12.71,0,*4B
1501434046.75,39526,26.19,74582.5,13.21,-12.35,-12.57,0,*43
1501434048.0,39527,26.19,74580.0,13.21,-12.35,-12.47,0,*43
1501434049.25,39528,26.19,74582.3,13.21,-12.39,-12.65,0,*40
1501434050.5,39529,26.19,74582.5,13.21,-12.39,-12.65,0,*41
1501434051.76,39530,26.19,74582.3,13.21,-12.39,-12.71,0,*4C
1501434053.04,39531,26.19,74580.5,13.21,-12.57,-12.83,0,*48
1501434054.32,39532,26.19,74580.8,13.21,-12.57,-12.79,0,*4E
1501434055.58,39533,26.19,74582.3,13.21,-12.35,-12.39,0,*4F
1501434056.82,39534,26.19,74578.8,13.23,-12.21,-12.35,0,*43
1501434058.08,39535,26.19,74582.0,13.21,-12.25,-12.53,0,*44
1501434059.34,39536,26.19,74580.3,13.21,-12.25,-12.53,0,*47
1501434060.57,39537,26.19,74580.8,13.23,-12.35,-12.47,0,*40
1501434061.85,39538,26.19,74580.8,13.21,-12.35,-12.53,0,*48
1501434063.14,39539,26.19,74586.5,13.21,-12.35,-12.53,0,*49
1501434064.35,39540,26.19,74582.8,13.23,-12.21,-12.47,0,*45
1501434065.61,39541,26.19,74580.8,13.21,-12.47,-12.71,0,*43
1501434066.84,39542,26.19,74580.8,13.23,-12.61,-12.89,0,*41
1501434068.11,39543,26.19,74580.8,13.21,-12.71,-12.83,0,*49
1501434069.4,39544,26.19,74580.5,13.21,-12.53,-12.79,0,*4B
1501434070.66,39545,26.19,74580.8,13.21,-12.65,-12.93,0,*4B
1501434071.91,39546,26.19,74582.0,13.21,-12.65,-12.93,0,*48
1501434073.16,39547,26.19,74580.8,13.21,-12.83,-12.97,0,*45
1501434074.4,39548,26.19,74580.0,13.23,-12.43,-12.71,0,*4C
1501434075.63,39549,26.19,74580.0,13.23,-12.43,-12.53,0,*4D
1501434076.88,39550,26.19,74580.5,13.21,-12.35,-12.47,0,*43
1501434078.09,39551,26.19,74580.0,13.23,-12.21,-12.43,0,*41
1501434079.34,39552,26.19,74580.5,13.21,-12.47,-12.65,0,*44
1501434080.57,39553,26.19,74582.0,13.23,-12.43,-12.61,0,*47
1501434081.83,39554,26.19,74582.5,13.23,-12.53,-12.75,0,*44
1501434083.09,39555,26.19,74582.5,13.21,-12.71,-12.93,0,*4F
1501434084.31,39556,26.19,74582.0,13.23,-12.89,-13.01,0,*43
1501434085.56,39557,26.19,74580.8,13.21,-12.79,-12.97,0,*41
1501434086.82,39558,26.19,74578.3,13.23,-12.65,-12.79,0,*41
1501434088.08,39559,26.19,74582.3,13.23,-12.53,-12.75,0,*49
1501434089.34,39560,26.19,74580.3,13.21,-12.47,-12.71,0,*40
1501434090.6,39561,26.19,74582.3,13.21,-12.79,-12.93,0,*40
1501434091.83,39562,26.19,74580.0,13.21,-12.93,-12.97,0,*43
1501434093.06,39563,26.19,74580.8,13.21,-12.93,-13.07,0,*4A
1501434094.29,39564,26.19,74582.0,13.21,-12.97,-13.07,0,*49
1501434095.51,39565,26.19,74578.5,13.21,-12.93,-13.07,0,*4C
1501434096.77,39566,26.19,74580.3,13.21,-12.83,-12.97,0,*46
1501434098.05,39567,26.19,74582.0,13.21,-12.57,-12.71,0,*46
1501434099.31,39568,26.19,74584.8,13.23,-12.53,-12.61,0,*4E
1501434100.59,39569,26.19,74582.8,13.21,-12.57,-12.79,0,*40
1501434101.87,39570,26.19,74580.8,13.21,-12.57,-12.79,0,*48
1501434103.1,39571,26.19,74576.8,13.23,-12.47,-12.65,0,*47
1501434104.33,39572,26.19,74580.0,13.21,-12.47,-12.47,0,*46
1501434105.58,39573,26.19,74580.8,13.21,-12.47,-12.57,0,*46
1501434106.81,39574,26.19,74576.0,13.21,-12.47,-12.47,0,*40
1501434108.07,39575,26.19,74582.5,13.21,-12.39,-12.53,0,*4D
1501434109.32,39576,26.19,74576.8,13.23,-12.61,-12.61,0,*40
1501434110.6,39577,26.19,74578.3,13.21,-12.65,-12.71,0,*46
1501434111.85,39578,26.19,74578.8,13.23,-12.65,-12.65,0,*4E
1501434113.06,39579,26.19,74578.5,13.23,-12.47,-12.47,0,*4F
1501434114.31,39580,26.19,74574.8,13.21,-12.47,-12.57,0,*4A
1501434115.54,39581,26.19,74578.0,13.23,-12.43,-12.35,0,*49
1501434116.8,39582,26.19,74576.0,13.21,-12.35,-12.25,0,*48
1501434118.03,39583,26.19,74576.8,13.23,-12.15,-12.21,0,*4D
1501434119.26,39584,26.19,74578.0,13.23,-12.35,-12.47,0,*48
1501434120.49,39585,26.19,74578.8,13.23,-12.43,-12.53,0,*4D
1501434121.69,39586,26.19,74578.5,13.23,-12.43,-12.43,0,*4F
1501434122.89,39587,26.19,74578.3,13.23,-12.47,-12.47,0,*4E
1501434124.14,39588,26.19,74578.8,13.23,-12.61,-12.65,0,*45
1501434125.37,39589,26.19,74578.5,13.23,-12.47,-12.53,0,*45
1501434126.57,39590,26.19,74576.5,13.23,-12.43,-12.47,0,*4C
1501434127.77,39591,26.19,74578.8,13.25,-12.43,-12.47,0,*4B
1501434129.0,39592,26.19,74578.5,13.27,-12.39,-12.29,0,*4F
1501434130.25,39593,26.19,74578.5,13.27,-12.03,-12.11,0,*4C
1501434131.48,39594,26.19,74578.5,13.25,-12.35,-12.43,0,*4B
1501434132.73,39595,26.19,74582.8,13.25,-12.53,-12.65,0,*4E
1501434134.01,39596,26.19,74578.5,13.27,-12.61,-12.71,0,*4B
1501434135.29,39597,26.19,74576.5,13.27,-12.57,-12.71,0,*4F
1501434136.57,39598,26.19,74580.3,13.27,-12.57,-12.71,0,*40
1501434137.81,39599,26.19,74578.8,13.25,-12.75,-12.89,0,*44
1501434139.05,39600,26.19,74578.5,13.25,-12.61,-12.65,0,*40
1501434140.31,39601,26.19,74578.3,13.25,-12.61,-12.75,0,*40
1501434141.54,39602,26.19,74582.0,13.25,-12.47,-12.53,0,*43
1501434142.77,39603,26.19,74578.5,13.27,-12.39,-12.43,0,*48
1501434144.0,39604,26.19,74580.0,13.25,-12.47,-12.53,0,*45
1501434145.2,39605,26.19,74580.3,13.25,-12.43,-12.47,0,*45
1501434146.43,39606,26.19,74576.8,13.25,-12.35,-12.43,0,*43
1501434147.65,39607,26.19,74576.3,13.25,-12.21,-12.29,0,*4B
1501434148.88,39608,26.19,74580.0,13.27,-12.25,-12.29,0,*42
1501434150.11,39609,26.19,74578.5,13.27,-12.29,-12.43,0,*43
1501434151.35,39610,26.19,74580.5,13.27,-12.43,-12.57,0,*42
1501434152.58,39611,26.19,74578.8,13.27,-12.29,-12.39,0,*47
1501434153.81,39612,26.19,74576.0,13.27,-12.29,-12.43,0,*49
1501434155.04,39613,26.19,74580.8,13.27,-12.29,-12.47,0,*4C
1501434156.28,39614,26.19,74582.3,13.29,-12.35,-12.43,0,*4C
1501434157.51,39615,26.19,74582.8,13.29,-12.35,-12.25,0,*4D
1501434158.72,39616,26.19,74576.0,13.29,-12.25,-12.21,0,*4B
1501434159.93,39617,26.19,74578.5,13.29,-12.21,-12.21,0,*4E
1501434161.17,39618,26.19,74582.0,13.29,-12.21,-12.11,0,*42
1501434162.38,39619,26.19,74578.0,13.29,-12.25,-12.21,0,*44
1501434163.62,39620,26.19,74578.5,13.31,-12.21,-12.29,0,*4B
1501434164.83,39621,26.19,74582.3,13.29,-12.25,-12.25,0,*4B
1501434166.09,39622,26.19,74578.5,13.31,-12.21,-12.15,0,*46
1501434167.35,39623,26.19,74578.8,13.31,-12.15,-12.21,0,*47
1501434168.61,39624,26.19,74580.3,13.31,-12.03,-12.15,0,*40
1501434169.89,39625,26.19,74580.0,13.31,-11.81,-11.89,0,*4E
1501434171.17,39626,26.19,74578.8,13.31,-11.93,-12.07,0,*4B
1501434172.43,39627,26.19,74580.0,13.31,-12.03,-11.93,0,*4E
1501434173.68,39628,26.19,74578.8,13.33,-12.07,-12.15,0,*4A
1501434174.94,39629,26.19,74582.8,13.33,-12.53,-12.61,0,*49
1501434176.19,39630,26.19,74580.3,13.33,-12.79,-12.79,0,*40
1501434177.47,39631,26.19,74576.8,13.35,-12.79,-12.75,0,*4B
1501434178.71,39632,26.19,74576.5,13.33,-12.61,-12.65,0,*46
1501434179.96,39633,26.19,74582.5,13.33,-12.53,-12.65,0,*46
1501434181.19,39634,26.19,74578.5,13.35,-12.47,-12.47,0,*42
1501434182.39,39635,26.19,74582.5,13.33,-12.47,-12.47,0,*45
1501434183.62,39636,26.19,74580.3,13.33,-12.47,-12.61,0,*42
1501434184.84,39637,26.19,74582.3,13.33,-12.47,-12.61,0,*43
1501434186.08,39638,26.19,74582.0,13.33,-12.21,-12.35,0,*4D
1501434187.33,39639,26.19,74580.3,13.33,-11.89,-11.93,0,*42
1501434188.59,39640,26.19,74582.5,13.33,-11.93,-12.07,0,*49
1501434189.87,39641,26.19,74580.8,13.35,-11.97,-11.97,0,*40
1501434191.11,39642,26.19,74578.3,13.35,-12.03,-12.15,0,*44
1501434192.34,39643,26.19,74580.3,13.37,-12.03,-12.15,0,*47
1501434193.61,39644,26.19,74580.0,13.35,-12.11,-12.15,0,*41
1501434194.86,39645,26.19,74582.0,13.37,-12.11,-12.11,0,*46
1501434196.11,39646,26.19,74580.5,13.37,-12.11,-12.15,0,*41
1501434197.37,39647,26.19,74580.5,13.41,-12.11,-12.11,0,*45
1501434198.62,39648,26.19,74582.0,13.41,-11.97,-12.11,0,*47
1501434199.85,39649,26.25,74584.0,13.37,-12.15,-12.29,0,*45
1501434201.09,39650,26.19,74582.3,13.37,-12.25,-12.35,0,*43
1501434202.32,39651,26.19,74578.0,13.41,-12.11,-12.25,0,*45
1501434203.53,39652,26.25,74584.3,13.41,-12.25,-12.29,0,*4D
1501434204.79,39653,26.19,74582.0,13.41,-12.53,-12.57,0,*44
1501434206.04,39654,26.19,74578.3,13.41,-12.53,-12.65,0,*42
1501434207.29,39655,26.25,74582.5,13.37,-12.61,-12.61,0,*47
1501434208.54,39656,26.19,74578.0,13.41,-12.53,-12.57,0,*41
1501434209.8,39657,26.19,74582.8,13.37,-12.57,-12.71,0,*41
1501434211.06,39658,26.19,74578.0,13.41,-12.53,-12.57,0,*4F
1501434212.31,39659,26.25,74582.8,13.41,-12.65,-12.79,0,*47
1501434213.57,39660,26.25,74580.8,13.41,-12.71,-12.71,0,*40
1501434214.83,39661,26.25,74580.5,13.37,-12.71,-12.71,0,*40
1501434216.06,39662,26.25,74580.8,13.41,-12.39,-12.57,0,*4A
1501434217.31,39663,26.25,74580.0,13.41,-12.53,-12.65,0,*46
1501434218.54,39664,26.25,74582.8,13.43,-12.89,-12.93,0,*4D
1501434219.82,39665,26.25,74582.3,13.43,-12.75,-12.75,0,*47
1501434221.09,39666,26.25,74580.8,13.43,-12.53,-12.65,0,*41
1501434222.29,39667,26.19,74580.3,13.41,-12.93,-13.07,0,*4B
1501434223.52,39668,26.25,74580.0,13.45,-12.79,-12.93,0,*48
1501434224.77,39669,26.25,74580.5,13.43,-12.79,-12.89,0,*44
1501434226.03,39670,26.25,74578.3,13.41,-12.65,-12.71,0,*44
1501434227.3,39671,26.25,74578.0,13.41,-12.71,-12.71,0,*40
1501434228.55,39672,26.25,74580.5,13.41,-12.53,-12.65,0,*46
1501434229.8,39673,26.25,74578.3,13.41,-12.53,-12.65,0,*47
1501434231.06,39674,26.25,74582.5,13.41,-12.65,-12.79,0,*48
1501434232.32,39675,26.19,74576.0,13.41,-12.65,-12.71,0,*41
1501434233.58,39676,26.25,74580.0,13.41,-12.71,-12.71,0,*47
1501434234.78,39677,26.25,74580.3,13.41,-12.97,-13.15,0,*4D
1501434236.01,39678,26.25,74578.3,13.41,-12.83,-12.93,0,*48
1501434237.26,39679,26.25,74580.0,13.37,-12.75,-12.83,0,*40
1501434238.54,39680,26.25,74580.5,13.43,-12.65,-12.75,0,*4D
1501434239.74,39681,26.25,74582.3,13.41,-12.97,-13.07,0,*47
1501434240.99,39682,26.25,74582.5,13.37,-13.01,-13.01,0,*4D
1501434242.21,39683,26.19,74578.3,13.43,-13.07,-13.11,0,*48
1501434243.46,39684,26.25,74578.3,13.43,-13.01,-13.11,0,*49
1501434244.74,39685,26.25,74576.0,13.43,-13.33,-13.33,0,*49
1501434245.97,39686,26.25,74582.5,13.41,-13.23,-13.29,0,*42
1501434247.17,39687,26.25,74582.0,13.41,-13.43,-13.43,0,*49
1501434248.39,39688,26.25,74576.5,13.41,-13.15,-13.37,0,*46
1501434249.61,39689,26.25,74576.0,13.41,-13.29,-13.43,0,*4B
1501434250.84,39690,26.25,74580.5,13.37,-13.69,-13.83,0,*4A
1501434252.08,39691,26.25,74578.8,13.37,-13.87,-13.87,0,*4F
1501434253.29,39692,26.25,74582.5,13.37,-13.43,-13.51,0,*4F
1501434254.51,39693,26.25,74580.0,13.37,-13.15,-13.33,0,*49
1501434255.76,39694,26.25,74580.8,13.37,-13.33,-13.33,0,*4A
1501434256.99,39695,26.25,74576.8,13.37,-13.61,-13.55,0,*4C
1501434258.18,39696,26.25,74582.0,13.37,-13.47,-13.47,0,*48
1501434259.43,39697,26.25,74580.0,13.35,-13.47,-13.61,0,*4F
1501434260.67,39698,26.25,74582.3,13.35,-13.29,-13.43,0,*48
1501434261.91,39699,26.25,74578.0,13.35,-13.29,-13.47,0,*4D
1501434263.14,39700,26.25,74580.0,13.35,-13.55,-13.55,0,*44
1501434264.35,39701,26.25,74576.8,13.35,-13.47,-13.47,0,*45
1501434265.63,39702,26.25,74582.5,13.35,-13.87,-14.01,0,*4F
1501434266.91,39703,26.25,74580.0,13.35,-13.83,-14.01,0,*4A
1501434268.14,39704,26.25,74582.3,13.33,-13.73,-13.61,0,*45
1501434269.42,39705,26.25,74582.5,13.35,-13.83,-13.83,0,*41
1501434270.67,39706,26.19,74578.8,13.31,-13.79,-13.73,0,*4C
1501434271.89,39707,26.25,74582.0,13.33,-13.73,-13.79,0,*4F
1501434273.11,39708,26.25,74582.8,13.29,-13.79,-13.69,0,*40
1501434274.39,39709,26.25,74580.0,13.31,-13.33,-13.37,0,*4D
1501434275.62,39710,26.25,74580.8,13.31,-13.65,-13.65,0,*41
1501434276.87,39711,26.25,74580.8,13.29,-13.83,-13.79,0,*4C
1501434278.13,39712,26.25,74582.3,13.29,-13.83,-13.83,0,*4A
1501434279.35,39713,26.25,74582.3,13.29,-13.65,-13.79,0,*46
1501434280.57,39714,26.25,74582.5,13.35,-13.73,-13.73,0,*41
1501434281.8,39715,26.25,74580.5,13.29,-13.93,-13.97,0,*49
1501434283.01,39716,26.25,74578.8,13.29,-14.19,-14.29,0,*4D
1501434284.22,39717,26.25,74578.0,13.29,-14.19,-14.19,0,*4F
1501434285.48,39718,26.25,74578.3,13.25,-13.97,-14.01,0,*44
1501434286.77,39719,26.25,74582.3,13.27,-13.97,-14.01,0,*47
1501434288.02,39720,26.25,74580.0,13.25,-13.87,-13.87,0,*47
1501434289.24,39721,26.25,74580.0,13.27,-13.69,-13.69,0,*44
1501434290.46,39722,26.25,74586.3,13.27,-13.69,-13.69,0,*47
1501434291.66,39723,26.25,74580.8,13.25,-13.47,-13.51,0,*43
1501434292.88,39724,26.25,74580.5,13.25,-13.37,-13.47,0,*44
1501434294.13,39725,26.25,74582.5,13.25,-13.33,-13.37,0,*46
1501434295.38,39726,26.25,74582.3,13.25,-13.87,-13.87,0,*41
1501434296.61,39727,26.25,74578.3,13.25,-13.79,-13.93,0,*44
1501434297.86,39728,26.25,74580.0,13.25,-13.79,-13.87,0,*4E
1501434299.11,39729,26.25,74582.5,13.25,-13.87,-13.87,0,*4E
1501434300.36,39730,26.25,74580.3,13.25,-13.61,-13.61,0,*46
1501434301.58,39731,26.25,74580.5,13.23,-13.33,-13.47,0,*42
1501434302.81,39732,26.25,74582.5,13.25,-13.61,-13.65,0,*40
1501434304.01,39733,26.25,74582.8,13.25,-13.93,-13.93,0,*45
1501434305.23,39734,26.25,74582.3,13.25,-13.87,-13.93,0,*47
1501434306.43,39735,26.25,74578.5,13.23,-13.65,-13.73,0,*42
1501434307.65,39736,26.25,74580.3,13.23,-13.33,-13.51,0,*42
1501434308.91,39737,26.25,74580.3,13.23,-13.29,-13.37,0,*48
1501434310.12,39738,26.25,74580.8,13.23,-13.33,-13.47,0,*4B
1501434311.38,39739,26.25,74578.8,13.23,-13.29,-13.33,0,*42
1501434312.61,39740,26.25,74584.0,13.23,-13.19,-13.29,0,*44
1501434313.84,39741,26.25,74582.0,13.23,-13.19,-13.29,0,*45
1501434315.05,39742,26.25,74582.8,13.25,-13.19,-13.19,0,*43
1501434316.3,39743,26.25,74584.5,13.25,-13.33,-13.37,0,*46
1501434317.56,39744,26.25,74580.5,13.25,-13.61,-13.61,0,*45
1501434318.79,39745,26.25,74582.0,13.25,-13.93,-14.05,0,*4C
1501434320.01,39746,26.25,74582.5,13.25,-13.93,-14.05,0,*4F
1501434321.28,39747,26.25,74582.5,13.25,-14.01,-14.01,0,*46
1501434322.5,39748,26.25,74582.8,13.23,-13.65,-13.79,0,*42
1501434323.76,39749,26.25,74580.5,13.21,-14.05,-14.23,0,*48
1501434325.02,39750,26.25,74582.5,13.21,-14.05,-14.19,0,*49
1501434326.24,39751,26.25,74578.8,13.21,-13.69,-13.69,0,*45
1501434327.44,39752,26.25,74580.3,13.23,-13.47,-13.47,0,*44
1501434328.69,39753,26.25,74584.3,13.21,-13.37,-13.43,0,*44
1501434329.91,39754,26.25,74578.8,13.21,-13.55,-13.69,0,*4F
1501434331.15,39755,26.25,74580.0,13.21,-13.51,-13.55,0,*45
1501434332.37,39756,26.25,74582.5,13.23,-13.37,-13.47,0,*47
1501434333.6,39757,26.25,74582.5,13.21,-13.65,-13.55,0,*40
1501434334.83,39758,26.25,74584.0,13.21,-13.51,-13.65,0,*4B
1501434336.05,39759,26.25,74580.8,13.23,-13.73,-13.79,0,*45
1501434337.3,39760,26.25,74580.8,13.21,-13.79,-13.93,0,*43
1501434338.57,39761,26.25,74580.5,13.21,-13.79,-13.83,0,*43
1501434339.84,39762,26.25,74578.8,13.21,-13.79,-13.79,0,*45
1501434341.1,39763,26.25,74580.0,13.23,-13.61,-13.61,0,*46
1501434342.33,39764,26.25,74582.8,13.21,-13.51,-13.69,0,*48
1501434343.56,39765,26.25,74580.3,13.21,-13.43,-13.55,0,*45
1501434344.79,39766,26.25,74582.3,13.21,-13.43,-13.55,0,*46
1501434345.99,39767,26.25,74584.3,13.19,-13.51,-13.55,0,*4F
1501434347.22,39768,26.25,74582.8,13.21,-13.43,-13.55,0,*48
1501434348.5,39769,26.25,74582.0,13.21,-13.83,-13.83,0,*4E
1501434349.72,39770,26.25,74582.5,13.23,-13.65,-13.79,0,*49
1501434350.95,39771,26.25,74580.8,13.21,-13.55,-13.65,0,*44
1501434352.15,39772,26.25,74582.3,13.19,-13.51,-13.55,0,*4B
1501434353.38,39773,26.25,74580.3,13.21,-13.55,-13.69,0,*4A
1501434354.6,39774,26.25,74582.8,13.21,-13.55,-13.69,0,*4D
1501434355.8,39775,26.25,74582.3,13.19,-13.65,-13.69,0,*44
1501434356.99,39776,26.25,74580.3,13.19,-13.65,-13.69,0,*47
1501434358.19,39777,26.25,74576.5,13.19,-13.55,-13.65,0,*49
1501434359.38,39778,26.25,74580.5,13.19,-13.55,-13.65,0,*46
1501434360.59,39779,26.25,74580.0,13.19,-13.51,-13.43,0,*47
1501434361.78,39780,26.25,74580.0,13.19,-13.55,-13.65,0,*41
1501434362.99,39781,26.25,74580.5,13.19,-13.51,-13.65,0,*44
1501434364.19,39782,26.25,74580.5,13.19,-13.55,-13.55,0,*40
1501434365.39,39783,26.25,74578.8,13.19,-13.43,-13.55,0,*46
1501434366.61,39784,26.25,74580.0,13.19,-13.23,-13.33,0,*47
1501434367.82,39785,26.25,74578.8,13.19,-13.23,-13.19,0,*4E
1501434369.02,39786,26.25,74578.8,13.19,-13.11,-13.11,0,*44
1501434370.23,39787,26.25,74576.5,13.19,-13.19,-13.19,0,*45
1501434371.46,39788,26.25,74576.3,13.21,-13.19,-13.11,0,*49
1501434372.72,39789,26.25,74576.0,13.21,-13.23,-13.33,0,*41
1501434373.95,39790,26.25,74580.5,13.21,-13.19,-13.11,0,*40
1501434375.18,39791,26.25,74582.5,13.21,-13.07,-13.07,0,*49
1501434376.42,39792,26.25,74580.5,13.21,-13.11,-13.19,0,*42
1501434377.64,39793,26.25,74582.5,13.21,-12.97,-13.07,0,*43
1501434378.87,39794,26.25,74580.3,13.21,-13.07,-13.11,0,*4B
1501434380.09,39795,26.25,74582.8,13.23,-13.15,-13.29,0,*40
1501434381.32,39796,26.25,74582.3,13.23,-13.19,-13.37,0,*40
1501434382.57,39797,26.25,74582.0,13.23,-13.29,-13.37,0,*42
1501434383.79,39798,26.25,74580.5,13.23,-13.15,-13.29,0,*4D
1501434385.02,39799,26.25,74578.0,13.21,-13.55,-13.69,0,*4E
1501434386.27,39800,26.25,74582.8,13.23,-13.61,-13.61,0,*4C
1501434387.5,39801,26.25,74582.3,13.21,-13.43,-13.65,0,*4B
1501434388.78,39802,26.25,74576.0,13.21,-13.33,-13.33,0,*4C
1501434389.99,39803,26.25,74578.8,13.23,-13.15,-13.19,0,*43
1501434391.22,39804,26.25,74578.8,13.23,-12.79,-12.93,0,*4C
1501434392.45,39805,26.25,74582.0,13.23,-12.75,-12.89,0,*4A
1501434393.7,39806,26.25,74582.8,13.21,-12.83,-12.97,0,*4D
1501434394.93,39807,26.25,74582.3,13.23,-12.79,-12.93,0,*4F
1501434396.16,39808,26.25,74582.0,13.25,-12.79,-12.93,0,*46
1501434397.39,39809,26.25,74580.3,13.23,-12.79,-12.93,0,*41
1501434398.62,39810,26.25,74582.0,13.27,-13.11,-13.23,0,*48
1501434399.87,39811,26.25,74580.0,13.25,-13.29,-13.37,0,*45
1501434401.13,39812,26.25,74582.0,13.25,-13.37,-13.61,0,*4A
1501434402.35,39813,26.25,74580.0,13.25,-13.37,-13.65,0,*4F
1501434403.56,39814,26.25,74582.3,13.25,-13.51,-13.73,0,*4F
1501434404.79,39815,26.25,74584.8,13.25,-13.37,-13.65,0,*49
1501434406.02,39816,26.25,74580.3,13.25,-13.37,-13.51,0,*4D
1501434407.25,39817,26.25,74582.3,13.25,-13.47,-13.61,0,*48
1501434408.47,39818,26.25,74580.3,13.25,-13.61,-13.73,0,*40
1501434409.7,39819,26.25,74580.0,13.25,-13.73,-13.87,0,*49
1501434410.9,39820,26.25,74576.0,13.23,-13.93,-14.15,0,*47
1501434412.16,39821,26.25,74580.0,13.23,-13.87,-14.01,0,*46
1501434413.38,39822,26.25,74580.5,13.23,-13.61,-13.73,0,*4F
1501434414.6,39823,26.25,74582.0,13.23,-13.65,-13.79,0,*40
1501434415.83,39824,26.25,74580.5,13.23,-13.93,-14.05,0,*42
1501434417.08,39825,26.25,74578.0,13.21,-13.93,-14.05,0,*41
1501434418.3,39826,26.25,74580.5,13.23,-13.65,-13.79,0,*45
1501434419.55,39827,26.25,74580.3,13.21,-13.69,-13.79,0,*4A
1501434420.77,39828,26.25,74580.0,13.23,-13.61,-13.73,0,*45
1501434422.01,39829,26.25,74578.8,13.21,-13.51,-13.51,0,*45
1501434423.26,39830,26.25,74582.0,13.21,-13.33,-13.43,0,*4A
1501434424.53,39831,26.25,74582.3,13.21,-13.33,-13.37,0,*48
1501434425.76,39832,26.25,74580.8,13.23,-13.19,-13.33,0,*45
1501434427.02,39833,26.25,74582.8,13.21,-13.19,-13.33,0,*46
1501434428.25,39834,26.25,74580.8,13.23,-13.15,-13.33,0,*4F
1501434429.48,39835,26.25,74578.3,13.21,-13.19,-13.11,0,*40
1501434430.71,39836,26.25,74578.3,13.23,-13.37,-13.51,0,*49
1501434431.91,39837,26.25,74578.8,13.23,-13.65,-13.65,0,*48
1501434433.14,39838,26.25,74574.0,13.21,-13.43,-13.51,0,*46
1501434434.39,39839,26.25,74578.8,13.21,-13.23,-13.37,0,*41
1501434435.62,39840,26.25,74576.3,13.23,-13.19,-13.29,0,*4B
1501434436.82,39841,26.25,74580.8,13.23,-13.65,-13.73,0,*4E
1501434438.05,39842,26.25,74580.0,13.23,-13.47,-13.61,0,*4E
1501434439.3,39843,26.25,74580.5,13.23,-13.87,-14.01,0,*42
1501434440.59,39844,26.25,74578.0,13.21,-14.05,-14.05,0,*4E
1501434441.81,39845,26.25,74578.8,13.23,-13.61,-13.73,0,*4E
1501434443.04,39846,26.25,74578.0,13.23,-13.69,-13.83,0,*4A
1501434444.27,39847,26.25,74580.5,13.21,-14.19,-14.33,0,*45
1501434445.56,39848,26.25,74578.8,13.21,-14.05,-14.05,0,*42
1501434446.81,39849,26.31,74582.5,13.23,-13.79,-13.87,0,*40
1501434448.08,39850,26.25,74582.0,13.21,-13.79,-13.83,0,*4E
1501434449.32,39851,26.25,74578.3,13.21,-14.11,-14.23,0,*4B
1501434450.6,39852,26.31,74582.0,13.21,-14.05,-14.05,0,*49
1501434451.86,39853,26.25,74578.0,13.19,-13.83,-13.83,0,*43
1501434453.08,39854,26.25,74576.5,13.19,-13.97,-13.93,0,*40
1501434454.3,39855,26.25,74576.5,13.19,-13.93,-14.05,0,*4D
1501434455.56,39856,26.31,74578.5,13.19,-13.83,-13.97,0,*43
1501434456.79,39857,26.25,74576.0,13.19,-13.93,-14.05,0,*4F
1501434458.01,39858,26.25,74578.0,13.19,-13.83,-13.93,0,*49
1501434459.24,39859,26.25,74578.0,13.19,-13.97,-14.11,0,*40
1501434460.5,39860,26.25,74578.8,13.19,-13.97,-13.97,0,*43
1501434461.75,39861,26.31,74572.0,13.17,-14.01,-14.11,0,*4D
1501434463.04,39862,26.31,74578.5,13.17,-14.01,-14.01,0,*4F
1501434464.27,39863,26.31,74580.0,13.17,-14.11,-14.23,0,*4F
1501434465.49,39864,26.25,74576.8,13.19,-14.33,-14.43,0,*40
1501434466.72,39865,26.31,74578.5,13.17,-14.11,-14.23,0,*49
1501434467.95,39866,26.25,74574.8,13.17,-14.11,-14.23,0,*4A
1501434469.19,39867,26.31,74576.8,13.17,-14.11,-14.23,0,*4B
1501434470.42,39868,26.31,74578.5,13.13,-14.61,-14.65,0,*45
1501434471.68,39869,26.31,74576.0,13.11,-14.47,-14.51,0,*45
1501434472.91,39870,26.25,74576.5,13.11,-14.29,-14.47,0,*42
1501434474.13,39871,26.31,74576.3,13.11,-14.15,-14.19,0,*47
1501434475.38,39872,26.31,74576.3,13.11,-13.87,-14.01,0,*41
1501434476.62,39873,26.25,74578.0,13.13,-14.15,-14.15,0,*4B
1501434477.88,39874,26.31,74580.8,13.11,-14.01,-14.05,0,*4A
1501434479.12,39875,26.31,74578.8,13.09,-14.11,-14.19,0,*4E
1501434480.36,39876,26.31,74580.5,13.09,-14.19,-14.33,0,*4D
1501434481.57,39877,26.31,74578.0,13.11,-14.19,-14.29,0,*4E
1501434482.82,39878,26.25,74576.8,13.11,-13.87,-14.01,0,*4B
1501434484.08,39879,26.31,74580.8,13.11,-13.87,-14.01,0,*4A
1501434485.31,39880,26.31,74580.5,13.11,-14.51,-14.61,0,*46
1501434486.55,39881,26.31,74580.8,13.09,-14.23,-14.33,0,*4C
1501434487.8,39882,26.25,74576.8,13.09,-13.79,-13.93,0,*4A
1501434489.08,39883,26.25,74576.5,13.09,-13.79,-13.83,0,*4A
1501434490.34,39884,26.31,74580.0,13.09,-14.05,-14.11,0,*4D
1501434491.6,39885,26.31,74582.3,13.07,-14.01,-13.97,0,*4F
1501434492.86,39886,26.31,74582.5,13.09,-13.93,-13.83,0,*4B
1501434494.07,39887,26.31,74582.8,13.07,-14.15,-14.29,0,*4A
1501434495.36,39888,26.31,74580.3,13.09,-13.97,-14.05,0,*48